Location: Beaurecueil
(43.5122°N, 5.5450°E)
Time: 13:05:01
(UTC+00:00)

Cosmos 372 Rocket - Visible Passes

Search period start: 16 January 2021 00:00
Search period end: 26 January 2021 00:00
Orbit: 737 x 769 km, 74.1° (Epoch: 16 January)

Date Brightness Start Highest point End Pass type
(mag) Time Alt. Az. Time Alt. Az. Time Alt. Az.
16 Jan 6.0 05:26:22 10° N 05:30:44 26° ENE 05:35:04 10° ESE visible
17 Jan 6.6 04:45:42 10° NNE 04:48:47 15° NE 04:51:52 10° E visible
17 Jan 4.0 06:25:57 10° NNW 06:31:14 83° WSW 06:36:28 10° SSE visible
18 Jan 4.7 05:44:29 10° NNW 05:49:40 54° ENE 05:54:47 10° SE visible
19 Jan 5.7 05:03:16 10° N 05:07:57 31° ENE 05:12:34 10° ESE visible
20 Jan 6.4 04:22:25 10° N 04:26:03 19° NE 04:29:41 10° E visible
20 Jan 4.0 06:03:05 10° NNW 06:08:19 67° WSW 06:13:30 10° S visible
21 Jan 6.8 03:42:34 10° NNE 03:44:00 11° NE 03:45:25 10° ENE visible
21 Jan 4.3 05:21:32 10° NNW 05:26:48 68° ENE 05:32:00 10° SSE visible
22 Jan 5.3 04:40:32 11° N 04:45:08 37° ENE 04:49:58 10° SE visible
22 Jan 4.9 06:22:14 10° NW 06:26:42 29° W 06:31:08 10° SSW visible
22 Jan 5.5 19:15:23 10° SSW 19:17:27 25° S 19:17:27 25° S visible
23 Jan 6.2 04:00:18 14° NNE 04:03:18 22° NE 04:07:21 10° ESE visible
23 Jan 4.1 05:40:17 10° NNW 05:45:23 53° WSW 05:50:27 10° S visible
23 Jan 4.6 18:34:19 10° S 18:38:01 36° SE 18:38:01 36° SE visible
23 Jan 6.5 20:16:36 10° WSW 20:18:03 17° WSW 20:18:03 17° WSW visible
24 Jan 6.7 03:20:09 13° NE 03:21:18 13° NE 03:23:49 10° ENE visible
24 Jan 4.0 05:00:09 20° NNW 05:03:55 83° ENE 05:09:08 10° SSE visible
24 Jan 5.1 17:53:57 10° SSE 17:57:52 22° E 17:58:34 22° E visible
24 Jan 4.9 19:34:14 10° SW 19:38:36 45° W 19:38:36 45° W visible
25 Jan 4.9 04:20:09 30° N 04:22:17 46° ENE 04:27:18 10° SE visible
25 Jan 5.1 06:00:10 12° NW 06:03:42 23° W 06:07:45 10° SSW visible
25 Jan 5.8 17:15:05 10° ESE 17:16:45 11° E 17:18:25 10° ENE visible
25 Jan 3.9 18:52:26 10° SSW 18:57:38 87° WNW 18:59:05 49° NNE visible
25 Jan 6.8 20:37:35 10° W 20:39:07 13° WNW 20:39:07 13° WNW visible
